PST,Max TemperatureF,Mean TemperatureF,Min TemperatureF,Max Dew PointF,MeanDew PointF,Min DewpointF,Max Humidity, Mean Humidity, Min Humidity, Max Sea Level PressureIn, Mean Sea Level PressureIn, Min Sea Level PressureIn, Max VisibilityMiles, Mean VisibilityMiles, Min VisibilityMiles, Max Wind SpeedMPH, Mean Wind SpeedMPH, Max Gust SpeedMPH,PrecipitationIn, CloudCover, Events, WindDirDegrees
2012-11-1,60,52,44,45,43,39,86,67,47,30.01,29.87,29.77,10,10,10,20,6,24,0.02,3,Rain,172
2012-11-2,55,46,36,45,40,34,92,82,71,30.28,30.15,30.04,10,8,0,12,5,14,0.00,4,Fog,351
2012-11-3,55,49,43,47,44,40,89,81,72,30.22,30.09,30.03,10,7,2,15,5,16,0.06,6,Rain,180
2012-11-4,61,55,48,51,47,44,86,75,64,30.29,30.25,30.18,10,10,10,10,4,13,0.00,2,,158
2012-11-5,63,52,40,48,42,36,89,64,39,30.26,30.22,30.17,10,10,10,16,7,20,0.00,0,,202
2012-11-6,58,48,38,43,39,35,92,72,51,30.27,30.06,29.88,10,10,10,7,3,8,0.00,1,,343
2012-11-7,56,44,31,41,28,24,83,57,30,30.04,30.00,29.91,10,10,9,23,8,28,0.00,1,,257
2012-11-8,50,41,31,33,28,25,85,62,39,29.95,29.82,29.74,10,10,10,21,9,30,0.01,5,Rain,8
2012-11-9,45,37,28,32,27,24,92,71,49,29.96,29.85,29.80,10,6,0,12,4,15,0.00,4,Fog,12
2012-11-10,38,31,24,30,27,21,88,79,69,30.25,30.08,29.95,10,7,0,8,2,9,0.01,6,Fog-Snow,330
2012-11-11,35,28,20,31,26,15,92,84,75,30.36,30.30,30.22,10,4,0,7,2,9,0.19,7,Fog-Snow,55
2012-11-12,36,34,32,31,30,28,89,86,82,30.32,30.24,30.20,10,4,0,6,2,6,0.33,7,Fog-Rain-Snow,325
2012-11-13,35,34,32,32,30,28,89,86,82,30.32,30.27,30.23,10,9,3,6,1,7,0.00,8,,325
2012-11-14,38,37,35,32,31,30,89,83,76,30.40,30.32,30.23,10,9,5,10,4,13,0.00,8,,359
2012-11-15,44,40,35,36,35,32,92,81,70,30.38,30.20,30.03,10,9,4,12,5,14,0.00,8,,341
2012-11-16,44,41,38,36,35,34,92,84,76,30.03,29.99,29.92,10,8,2,7,3,7,0.00,8,,148
2012-11-17,45,41,36,40,37,33,92,88,83,29.91,29.71,29.57,10,8,4,17,5,21,0.06,7,Rain,266
2012-11-18,50,42,34,38,34,31,89,70,50,29.88,29.83,29.74,10,10,10,25,12,33,0.05,5,Rain,164
2012-11-19,58,52,45,45,40,37,83,65,47,29.91,29.70,29.55,10,10,7,28,17,37,0.13,8,Rain,171
2012-11-20,54,48,41,46,42,34,93,77,61,30.14,29.72,29.64,20,10,10,24,12,31,0.01,4,,174
2012-11-21,51,45,38,39,33,28,89,68,46,30.22,29.91,29.61,10,10,6,23,11,31,0.06,2,Rain,211
2012-11-22,47,39,31,33,30,27,89,69,49,30.46,30.40,30.25,10,10,10,10,5,13,0.00,1,,88
2012-11-23,41,37,33,36,33,29,92,84,76,30.36,30.19,30.05,10,10,7,10,4,12,0.12,7,Rain,113
2012-11-24,43,35,27,36,32,25,100,88,76,30.23,30.15,30.06,10,3,0,10,3,13,0.00,2,Fog,348
2012-11-25,38,31,24,31,26,21,100,88,75,30.39,30.27,30.15,10,5,0,8,2,13,0.00,4,Fog,70
2012-11-26,39,32,25,30,27,23,92,81,70,30.38,30.30,30.20,10,9,0,14,8,16,0.00,4,Fog-Snow,9
2012-11-27,32,29,26,29,26,23,100,92,84,30.29,30.23,30.12,10,3,0,6,1,7,0.00,6,Fog,138
2012-11-28,37,32,26,32,28,24,100,91,82,30.14,29.98,29.82,10,3,0,15,3,17,0.07,7,Fog-Rain,99
2012-11-29,39,36,32,36,33,30,92,89,85,29.92,29.77,29.64,10,7,1,12,3,13,0.02,8,,54
2012-11-30,45,39,33,40,35,30,100,91,82,29.60,29.56,29.53,10,3,0,10,2,13,T,6,Fog,147